Location: *
(46.3500°N, 10.9000°E)
Time: 22:18:25
(UTC+00:00)

A-11 Canister half - Pass Details

Date: 23 April 2021
Orbit: 1526 x 1682 km, 47.3° (Epoch: 13 May)

Event Time Altitude Azimuth Distance (km) Brightness Sun altitude
Rises 20:30:49 0° 293° (WNW) 4,940 12.8 -20.3°
Reaches altitude 10° 20:34:20 10° 285° (WNW) 3,949 11.9 -20.8°
Maximum altitude 20:43:06 35° 225° (SW) 2,471 10.0 -21.8°
Enters shadow 20:48:08 23° 180° (S) 3,023 10.1 -22.3°
Drops below altitude 10° 20:51:45 10° 164° (SSE) 3,882 - -22.7°
Sets 20:55:12 0° 156° (SSE) 4,846 - -23.1°
